STARLINK-PRE (74001 NORAD) Tracking and Keplerian Element Data

This shows tracking and keplerian element data for the satellite.

Feedback or suggestion? Click here.




ElementValue
Catalog74001
NameSTARLINK-PRE
Epoch Orbit0
Epoch Day361.08819444
Epoch Year2018
RAAN266
Inclination97.72
Eccentricity0.0001436
Argument of Perigee0
Mean Anonmoly35
Mean Motion14.94155472
Decay Rate0
L11 74001U 18861A 18361.08819444 .00000000 00000-0 50000-4 0 05
L22 74001 97.7200 266.0000 0001436 0.0000 35.0000 14.94155472 07

Live tracking and technical data element details for STARLINK-PRE (NORAD 74001). STARLINK-PRE can be tracked NOW for your location showing map with azimuth and elevation plus other details from your city location.

Track the satellite on the map from your city or location and see movement details for azimuth, elevation, latitude, longitude, range, height, and movement on the map or in text.







IsCatalogInMostPopularTable: catalog: 74001, numindb: 2983
Update: records affected: 1



GetName: 74001 STARLINK-PRE

Hit Count: updated at: Mon, 22 Jul 2019 04:08:02 GMT